Location: Christchurch
(43.5330°S, 172.6330°E)
Time: 16:34:11
(UTC+12:00)

Cosmos 2263 Rocket - Pass Details

Date: 24 January 2019
Orbit: 825 x 847 km, 71.0° (Epoch: 20 April)

Event Time Altitude Azimuth Distance (km) Brightness Sun altitude
Rises 23:20:47 0° 217° (SW) 3,417 7.0 -19.4°
Reaches altitude 10° 23:23:39 10° 230° (SW) 2,478 5.7 -19.7°
Maximum altitude 23:28:05 24° 281° (WNW) 1,688 4.0 -20.2°
Enters shadow 23:32:01 12° 330° (NNW) 2,322 4.2 -20.6°
